SL-16 DEB, 22347

Orbit data source: Space-Track

SL-16 DEB, 22347 is space debris in LEO originally from a launch on Fri, 25 Dec 1992 UTC launched from the Tyuratam Missile And Space Complex (TTMTR). Debris objects in space refer to the collection of defunct objects orbiting the Earth. Examples of debris include non-operational satellites, rocket bodies, and fragments generated from explosions, collisions, or faulty payload assembly.

Loading next visibility...
Identifier
22347, 1992-093AL
Orbit
LEO
Country
Flag of CISCIS
Related business
Manufacturer
Unknown
Mission
Spacecraft
Bus & Motor
Unknown
Mass
Unknown
Launch date (UTC)
1992-12-25 (33 years ago)
Launch vehicle
Unknown
Launch site
Tyuratam Missile And Space Complex (TTMTR)
Object type
Payload
Rocket body
Debris
Shape & HBR
Unknown
Radar Cross Section
Small (<0.1 m²)

Expand to show TLE details & history
Last TLE update: 1 day ago

TLE from 1 day ago
0 SL-16 DEB
1 22347U 92093AL  25241.64671659  .00002596  00000-0  14687-2 0  9999
2 22347  70.8386 330.5220 0156639  90.9684  22.6033 14.05034981649159
Epoch: 2025-08-29T15:31Z
TLE epoch observation values (Epoch: 2025-08-29T15:31:16.313Z)
Latitude
59.54967°
Longitude
-96.39795°
Altitude
781.314 km
Speed
7.523 km/s
True Right ascension
07h 38m 02s
True Declination
59° 23' 59"
Sunlit
Object was in daylight at epoch
Visualization orbit readout
Latitude
Unknown
Longitude
Unknown
Altitude
Unknown
Speed
Unknown
Apparent Right ascension
Unknown
Apparent Declination
Unknown
Sunlit
N/A
Visualization observer readout
Local Sidereal Time
16:04:37
Azimuth
Unknown
Elevation
Unknown
Doppler factor
Unknown
Orbital elements
Apogee altitude
987.964 km
Perigee altitude
760.759 km
Semi-major axis
7,252.499 km
Eccentricity
0.01566
Inclination
70.8386°
RAAN
330.522°
Arg. of periapsis
90.9684°
True anomaly
23.30586°
Mean anomaly
22.6033°
Eccentric anomaly
22.9533°
Mean motion
3.51408 °/min
Orbital period
102.45 mins
BSTAR
0.0014687
Loading maneuver chart data...
Computing Atmospheric mass density...
Loading historical data...
Loading historical data...
Loading historical data...
Loading historical data...
Loading historical data...
Loading historical data...
Loading historical data...

Documentation

Showing up to 5 results
|